• In India
  • List of Countries
  • For 7 days
  • Water Temperature
  • Satellite Maps
  • Weather Map
  • Weather Widgets
  • user-avatar
    Login

    Hourly Weather Zakrzyce

    Today, 20 February, Wednesday

    Time Temperature Precipitation Wind Pressure Humidity
    00:00 +3°C° 0 mm 5 mps 751 mmHg 81%
    01:00 +4°C° 0 mm 4 mps 751 mmHg 79%
    02:00 +2°C° 0 mm 5 mps 751 mmHg 81%
    03:00 +2°C° 0 mm 5 mps 751 mmHg 83%
    04:00 +2°C° 0 mm 5 mps 752 mmHg 84%
    05:00 +2°C° 0 mm 5 mps 752 mmHg 85%
    06:00 +2°C° 0 mm 5 mps 752 mmHg 86%
    07:00 +1°C° 0 mm 5 mps 752 mmHg 86%
    08:00 +2°C° 0 mm 5 mps 753 mmHg 81%
    09:00 +4°C° 0 mm 6 mps 753 mmHg 75%
    10:00 +5°C° 0 mm 6 mps 754 mmHg 69%
    11:00 +5°C° 0 mm 6 mps 754 mmHg 65%
    12:00 +7°C° 0 mm 6 mps 754 mmHg 61%
    13:00 +8°C° 0 mm 6 mps 754 mmHg 57%
    14:00 +8°C° 0 mm 6 mps 754 mmHg 58%
    15:00 +7°C° 0 mm 5 mps 754 mmHg 59%
    16:00 +7°C° 0 mm 4 mps 754 mmHg 60%
    17:00 +7°C° 0 mm 4 mps 755 mmHg 64%
    18:00 +7°C° 0 mm 3 mps 755 mmHg 69%
    19:00 +5°C° 0 mm 3 mps 755 mmHg 73%
    20:00 +5°C° 0 mm 3 mps 756 mmHg 74%
    21:00 +5°C° 0 mm 3 mps 756 mmHg 76%
    22:00 +5°C° 0 mm 3 mps 756 mmHg 77%
    23:00 +5°C° 0 mm 3 mps 756 mmHg 77%

    Tomorrow, 21 February, Thursday

    Time Temperature Precipitation Wind Pressure Humidity
    00:00 +5°C° 0 mm 3 mps 756 mmHg 78%
    01:00 +4°C° 0 mm 3 mps 757 mmHg 78%
    02:00 +4°C° 0 mm 3 mps 756 mmHg 79%
    03:00 +3°C° 0 mm 3 mps 756 mmHg 80%
    04:00 +3°C° 0 mm 3 mps 756 mmHg 80%
    05:00 +3°C° 0 mm 3 mps 756 mmHg 80%
    06:00 +3°C° 0 mm 3 mps 756 mmHg 80%
    07:00 +3°C° 0 mm 3 mps 756 mmHg 80%
    08:00 +4°C° 0.1 mm 3 mps 756 mmHg 77%
    09:00 +5°C° 0.1 mm 4 mps 756 mmHg 74%
    10:00 +6°C° 0.1 mm 4 mps 756 mmHg 70%
    11:00 +7°C° 0.3 mm 5 mps 756 mmHg 69%
    12:00 +7°C° 0.3 mm 5 mps 756 mmHg 68%
    13:00 +7°C° 0.3 mm 5 mps 755 mmHg 66%
    14:00 +7°C° 0.7 mm 5 mps 755 mmHg 70%
    15:00 +6°C° 0.7 mm 5 mps 755 mmHg 73%
    16:00 +6°C° 0.7 mm 4 mps 754 mmHg 77%
    17:00 +6°C° 0.3 mm 5 mps 754 mmHg 79%
    18:00 +6°C° 0.3 mm 5 mps 754 mmHg 81%
    19:00 +6°C° 0.3 mm 5 mps 754 mmHg 83%
    20:00 +5°C° 0.3 mm 6 mps 754 mmHg 84%
    21:00 +7°C° 0.3 mm 6 mps 754 mmHg 86%
    22:00 +6°C° 0.3 mm 7 mps 754 mmHg 87%
    23:00 +6°C° 0.5 mm 7 mps 754 mmHg 88%

    Day after tomorrow, 22 February, Friday

    Time Temperature Precipitation Wind Pressure Humidity
    00:00 +6°C° 0.5 mm 7 mps 754 mmHg 89%
    01:00 +6°C° 0.5 mm 7 mps 754 mmHg 89%
    02:00 +6°C° 0.2 mm 7 mps 754 mmHg 89%
    03:00 +6°C° 0.2 mm 7 mps 754 mmHg 88%
    04:00 +7°C° 0.2 mm 6 mps 754 mmHg 88%
    05:00 +5°C° 0.5 mm 7 mps 755 mmHg 88%
    06:00 +5°C° 0.5 mm 7 mps 756 mmHg 88%
    07:00 +5°C° 0.5 mm 7 mps 756 mmHg 88%
    08:00 +3°C° 0.1 mm 7 mps 758 mmHg 83%
    09:00 +2°C° 0.1 mm 7 mps 759 mmHg 78%
    10:00 +1°C° 0.1 mm 6 mps 760 mmHg 74%
    11:00 +1°C° 0 mm 6 mps 761 mmHg 68%
    12:00 +1°C° 0 mm 5 mps 762 mmHg 63%
    13:00 +1°C° 0 mm 5 mps 763 mmHg 57%
    14:00 +1°C° 0 mm 5 mps 763 mmHg 55%
    15:00 +1°C° 0 mm 5 mps 764 mmHg 53%
    16:00 +1°C° 0 mm 5 mps 764 mmHg 51%
    17:00 0°C° 0 mm 4 mps 765 mmHg 55%
    18:00 0°C° 0 mm 3 mps 766 mmHg 59%
    19:00 -1°C° 0 mm 3 mps 766 mmHg 62%
    20:00 -2°C° 0 mm 3 mps 767 mmHg 62%
    21:00 -2°C° 0 mm 2 mps 767 mmHg 62%
    22:00 -2°C° 0 mm 2 mps 768 mmHg 62%
    23:00 -2°C° 0 mm 2 mps 768 mmHg 60%

    23 February, Saturday

    Time Temperature Precipitation Wind Pressure Humidity
    00:00 -3°C° 0 mm 2 mps 768 mmHg 59%
    01:00 -3°C° 0 mm 2 mps 769 mmHg 58%
    02:00 -3°C° 0 mm 2 mps 768 mmHg 57%
    03:00 -3°C° 0 mm 2 mps 768 mmHg 56%
    04:00 -3°C° 0 mm 2 mps 768 mmHg 55%
    05:00 -3°C° 0 mm 2 mps 768 mmHg 54%
    06:00 -4°C° 0 mm 2 mps 768 mmHg 52%
    07:00 -4°C° 0 mm 2 mps 769 mmHg 51%
    08:00 -3°C° 0 mm 2 mps 769 mmHg 45%
    09:00 -3°C° 0 mm 2 mps 769 mmHg 39%
    10:00 -2°C° 0 mm 3 mps 770 mmHg 33%
    11:00 -1°C° 0 mm 2 mps 769 mmHg 30%
    12:00 -1°C° 0 mm 2 mps 769 mmHg 28%
    13:00 +1°C° 0 mm 2 mps 769 mmHg 25%
    14:00 +1°C° 0 mm 2 mps 769 mmHg 25%
    15:00 +1°C° 0 mm 2 mps 769 mmHg 26%
    16:00 +1°C° 0 mm 2 mps 768 mmHg 27%
    17:00 -1°C° 0 mm 2 mps 768 mmHg 30%
    18:00 +1°C° 0 mm 1 mps 768 mmHg 33%
    19:00 0°C° 0 mm 1 mps 768 mmHg 36%
    20:00 -1°C° 0 mm 1 mps 768 mmHg 37%
    21:00 -1°C° 0 mm 1 mps 768 mmHg 38%
    22:00 -1°C° 0 mm 1 mps 768 mmHg 38%
    23:00 -1°C° 0 mm 1 mps 768 mmHg 38%

    24 February, Sunday

    Time Temperature Precipitation Wind Pressure Humidity
    00:00 -1°C° 0 mm 1 mps 768 mmHg 38%
    01:00 -1°C° 0 mm 1 mps 768 mmHg 37%
    02:00 -1°C° 0 mm 1 mps 768 mmHg 37%
    03:00 -1°C° 0 mm 1 mps 767 mmHg 36%
    04:00 -1°C° 0 mm 1 mps 767 mmHg 36%
    05:00 -1°C° 0 mm 1 mps 767 mmHg 36%
    06:00 -1°C° 0 mm 1 mps 767 mmHg 35%
    07:00 -2°C° 0 mm 0 mps 767 mmHg 35%
    08:00 -1°C° 0 mm 0 mps 767 mmHg 31%
    09:00 0°C° 0 mm 0 mps 767 mmHg 27%
    10:00 +2°C° 0 mm 0 mps 767 mmHg 23%
    11:00 +2°C° 0 mm 0 mps 767 mmHg 22%
    12:00 +3°C° 0 mm 0 mps 766 mmHg 22%
    13:00 +4°C° 0 mm 0 mps 766 mmHg 22%
    14:00 +4°C° 0 mm 0 mps 766 mmHg 27%
    15:00 +4°C° 0 mm 0 mps 765 mmHg 31%
    16:00 +5°C° 0 mm 1 mps 765 mmHg 36%
    17:00 +4°C° 0 mm 1 mps 765 mmHg 38%
    18:00 +1°C° 0 mm 0 mps 766 mmHg 39%
    19:00 0°C° 0 mm 0 mps 766 mmHg 41%
    20:00 0°C° 0 mm 0 mps 766 mmHg 41%
    21:00 0°C° 0 mm 0 mps 766 mmHg 42%
    22:00 0°C° 0 mm 0 mps 766 mmHg 42%
    23:00 +1°C° 0 mm 1 mps 766 mmHg 43%

    25 February, Monday

    Time Temperature Precipitation Wind Pressure Humidity
    00:00 +1°C° 0 mm 1 mps 766 mmHg 43%
    01:00 +1°C° 0 mm 1 mps 766 mmHg 43%
    02:00 +1°C° 0 mm 1 mps 766 mmHg 44%
    03:00 +1°C° 0 mm 1 mps 765 mmHg 44%
    04:00 +1°C° 0 mm 1 mps 765 mmHg 45%
    05:00 +1°C° 0 mm 1 mps 765 mmHg 46%
    06:00 -1°C° 0 mm 2 mps 765 mmHg 48%
    07:00 -1°C° 0 mm 2 mps 765 mmHg 50%
    08:00 +1°C° 0 mm 2 mps 766 mmHg 49%
    09:00 +1°C° 0 mm 3 mps 766 mmHg 48%
    10:00 +2°C° 0 mm 3 mps 766 mmHg 47%
    11:00 +3°C° 0 mm 4 mps 765 mmHg 48%
    12:00 +5°C° 0 mm 4 mps 765 mmHg 49%
    13:00 +6°C° 0 mm 4 mps 765 mmHg 50%
    14:00 +6°C° 0 mm 4 mps 765 mmHg 55%
    15:00 +7°C° 0 mm 3 mps 764 mmHg 59%
    16:00 +7°C° 0 mm 3 mps 764 mmHg 63%
    17:00 +4°C° 0 mm 3 mps 764 mmHg 71%
    18:00 +3°C° 0 mm 3 mps 765 mmHg 79%
    19:00 +3°C° 0 mm 2 mps 765 mmHg 87%
    20:00 +2°C° 0 mm 2 mps 765 mmHg 88%
    21:00 +2°C° 0 mm 2 mps 765 mmHg 90%
    22:00 +2°C° 0 mm 2 mps 765 mmHg 91%
    23:00 +1°C° 0 mm 2 mps 765 mmHg 90%
    Show more